Simultaneous Nadir Overpasses (SNOs) Predictions

Prediction of SNOs between AQUA and NOAA-19 Satellite Orbit:

Table of predicted SNOs for the next 14.0 days since TLE Epoch: 11/11/2016
Index Date (AQUA) Time (AQUA) Lat,Lon (AQUA) SZA (AQUA ) Date (NOAA-19) Time (NOAA-19) Lat,Lon (NOAA-19) SZA (NOAA-19 ) Distance(km) Time Diff (sec)
1 11/11/2016 15:02:19 80.94, -85.96 100.24 11/11/2016 15:02:16 80.94, -86.04 100.25 1.50 3
2 11/13/2016 20:36:03 -80.95, 10.47 79.14 11/13/2016 20:36:09 -80.94, 10.29 79.13 3.34 6
3 11/16/2016 01:20:20 -80.95, -60.59 78.58 11/16/2016 01:19:06 -80.94, -60.55 78.56 0.57 74
4 11/16/2016 02:09:46 80.93, 107.22 101.41 11/16/2016 02:10:10 80.93, 107.31 101.39 1.70 24
5 11/18/2016 06:54:03 80.94, 36.07 101.96 11/18/2016 06:53:08 80.95, 35.94 102.00 2.38 55
6 11/18/2016 07:43:30 -80.95,-156.40 78.02 11/18/2016 07:44:03 -80.94,-156.25 78.06 3.03 33
7 11/20/2016 12:27:47 -80.96, 132.42 77.49 11/20/2016 12:27:01 -80.95, 132.47 77.49 1.38 46
8 11/20/2016 13:17:12 80.92, -59.49 102.45 11/20/2016 13:18:04 80.93, -59.56 102.45 1.85 52
9 11/22/2016 18:01:29 80.94,-130.75 102.96 11/22/2016 18:01:01 80.94,-130.68 102.97 1.39 28
10 11/22/2016 18:50:56 -80.94, 36.83 77.02 11/22/2016 18:51:58 -80.94, 36.70 77.04 2.31 62




NCC Satellite Simultaneous Nadir Overpasses (SNOs) Prediction Service
